Location: Killam
(52.7910°N, 111.8608°W)
Time: 21:40:20
(UTC+00:00)

A-11 Canister half - Pass Details

Date: 23 February 2026
Orbit: 1525 x 1683 km, 47.3° (Epoch: 5 March)

Event Time Altitude Azimuth Distance (km) Brightness Sun altitude
Rises 21:05:38 0° 197° (SSW) 4,763 12.9 25.0°
Reaches altitude 10° 21:09:30 10° 184° (S) 3,756 12.5 24.8°
Maximum altitude 21:16:29 24° 136° (SE) 2,789 10.8 24.4°
Drops below altitude 10° 21:23:22 10° 87° (E) 3,703 10.8 23.9°
Sets 21:27:07 0° 75° (ENE) 4,681 11.2 23.6°
